Orbital Elements at Epoch 2456959.5 (2014-Oct-29.0) TDB
Reference: JPL 9 (heliocentric ecliptic J2000)
Element | Value | Uncertainty (1-sigma) | Units |
e | .7803660602060111 | 0.00075419 | |
a | .9171099091451868 | 0.0017426 | au |
q | .2014284625696646 | 0.00030895 | au |
i | 42.30841463508442 | 0.15701 | deg |
node | 36.95391749969799 | 0.0022103 | deg |
peri | 211.587292667489 | 0.03013 | deg |
M | 55.58403860357861 | 0.22502 | deg |
tp | 2456909.968885134147 (2014-Sep-09.46888513) | 0.059352 | TDB |
period | 320.797153277723 0.88 | 0.9143 0.002503 | d yr |
n | 1.12220447195907 | 0.0031984 | deg/d |
Q | 1.632791355720709 | 0.0031024 | au |
|
| | Orbit Determination Parameters
Additional Information
|